Flag for U.S.A. Weather past 2 weeks in Paradise, Nevada, U.S.A.

Now
100 °F

Broken clouds.


Feels Like: 96 °F
Forecast: 89 / 102 °F
Wind: 14 mph from South

Location: McCarran International Airport

Current Time: Jul 4, 2015 at 4:17:24 PM

Latest Report: Jul 4, 2015 at 3:56 PM


Visibility: 10 mi

Pressure: 29.68 "Hg (27.66 "Hg at 643m altitude)

Humidity: 16%

Dew point: 47 °F

Location of ParadiseLocation

Historic Weather in Paradise — Graph

°F

Paradise temperature yesterday

Maximum temperature yesterday: 108 °F (at 4:56 PM)
Minimum temperature yesterday: 88 °F (at 5:56 AM)
Average temperature yesterday: 99 °F

Past Weeks' High & Low Weather Summary

 TemperatureHumidityPressure
High112 °F (Jun 20, 2:56 PM)67% (Jul 2, 3:56 AM)29.88 "Hg (Jul 2, 3:56 AM)
Low81 °F (Jun 20, 4:56 AM)1% (Jun 22, 1:56 PM)29.57 "Hg (Jun 20, 5:56 PM)
Average98 °F12%29.71 "Hg
* Reported Jun 19 2:56 PM — Jul 4 2:56 PM, Paradise, Weather by CustomWeather, © 2015

Note: Actual official high and low records may vary slightly from our data, if they occured in-between our weather recording intervals... More about our weather records

Advertising

Paradise weather history for previous 24 hours

 ConditionsComfort  
Time TempWeatherWind HumidityBarometerVisibility
2:56 PM
Sat, Jul 4
102 °FPartly sunny.No wind13%29.70 "Hg10 mi
1:56 PM98 °FPartly sunny.12 mph16%29.72 "Hg10 mi
12:56 PM98 °FPartly sunny.6 mph15%29.74 "Hg10 mi
11:56 AM96 °FMostly cloudy.3 mph16%29.74 "Hg10 mi
10:56 AM96 °FMore clouds than sun.7 mph16%29.74 "Hg10 mi
9:56 AM96 °FMore clouds than sun.14 mph16%29.72 "Hg10 mi
8:56 AM93 °FMore clouds than sun.10 mph18%29.74 "Hg10 mi
7:56 AM94 °FOvercast.6 mph15%29.72 "Hg10 mi
6:56 AM94 °FLight rain. More clouds than sun.10 mph15%29.70 "Hg10 mi
5:56 AM94 °FOvercast.10 mph13%29.67 "Hg10 mi
4:56 AM94 °FMostly cloudy.8 mph12%29.65 "Hg10 mi
3:56 AM93 °FPassing clouds.10 mph12%29.65 "Hg10 mi
2:56 AM95 °FPartly cloudy.14 mph10%29.64 "Hg10 mi
1:56 AM96 °FPartly cloudy.16 mph9%29.64 "Hg10 mi
12:56 AM97 °FPassing clouds.14 mph10%29.64 "Hg10 mi
11:56 PM
Fri, Jul 3
97 °FPassing clouds.14 mph11%29.64 "Hg10 mi
10:56 PM99 °FPassing clouds.14 mph11%29.63 "Hg10 mi
9:56 PM101 °FPartly cloudy.13 mph10%29.62 "Hg10 mi
8:56 PM102 °FPartly sunny.14 mph8%29.60 "Hg10 mi
7:56 PM104 °FPartly sunny.16 mph8%29.59 "Hg10 mi
6:56 PM107 °FScattered clouds.15 mph9%29.58 "Hg10 mi
5:56 PM108 °FScattered clouds.7 mph10%29.59 "Hg10 mi
4:56 PM108 °FScattered clouds.9 mph11%29.61 "Hg10 mi
Weather by CustomWeather, © 2015

See weather overviewHow to use our weather pages